Regional Weather Roundup
Issued by NWS

Home | Current Version | Previous Version | Graphics & Text | Print | Product List | Glossary On
Versions: 1 2 3 4 5 6 7 8 9 10 11 12 13 14 15 16 17 18 19 20 21 22 23 24 25 26 27 28 29 30 31 32 33 34 35 36 37 38 39 40 41 42 43 44 45 46 47 48 49 50
000
ASUS43 KBIS 020420
RWRND

NORTH DAKOTA REGIONAL WEATHER ROUNDUP
NATIONAL WEATHER SERVICE BISMARCK ND
1100 PM CDT WED APR 01 2015

NOTE: "FAIR" INDICATES FEW OR NO CLOUDS BELOW 12,000 FEET WITH NO
SIGNIFICANT WEATHER AND/OR OBSTRUCTIONS TO VISIBILITY.


NDZ001>003-009>011-017-020500-
NORTHWEST NORTH DAKOTA

CITY           SKY/WX    TMP DP  RH WIND       PRES   REMARKS
WILLISTON      CLEAR     42  24  49 SW10      29.66F
MINOT          CLEAR     43  23  45 SW15      29.63F
MINOT AFB      PTCLDY    36  27  70 W10       29.63S
$$

NDZ018>021-031>035-040>046-020500-
SOUTHWEST NORTH DAKOTA

CITY           SKY/WX    TMP DP  RH WIND       PRES   REMARKS
BISMARCK       PTCLDY    44  24  45 W12       29.74S
DICKINSON      CLEAR     32  20  61 SW8       29.73F
GARRISON         N/A     37  25  61 W9        29.68S
HETTINGER ARPT CLEAR     28  18  66 CALM      29.80R
$$

NDZ004>008-012>016-024-026-027-054-020500-
NORTHEAST NORTH DAKOTA

CITY           SKY/WX    TMP DP  RH WIND       PRES   REMARKS
GRAND FORKS    MOCLDY    45  34  65 W10       29.57S
GRND FRKS AFB  PTCLDY    46  33  61 NW15      29.58S
DEVILS LAKE    CLEAR     37  28  70 W13       29.60F
$$

NDZ022-023-025-028>030-036>039-047>053-020500-
SOUTHEAST NORTH DAKOTA

CITY           SKY/WX    TMP DP  RH WIND       PRES   REMARKS
FARGO          CLEAR     50  34  54 W13       29.61R
JAMESTOWN      PTCLDY    42  28  57 W13       29.64F
$$



USA.gov is the U.S. government's official web portal to all federal, state and local government web resources and services.